Destin, FL

3:10 AM CDT on May 26, 2017 (GMT -0500)
Destin-Fort Walton Beach

Weather History for KDTS - January, 2012

Change the Weather History Date:

Saturday, January 7, 2012

  Actual Average Record
Temperature  
Mean Temperature 60 °F -  
Max Temperature 70 °F 58 °F 73 °F (2007)
Min Temperature 51 °F 43 °F 19 °F (2014)
Degree Days  
Heating Degree Days 4    
Growing Degree Days 10 (Base 50)    
Moisture  
Dew Point 57 °F    
Average Humidity 93    
Maximum Humidity 100    
Minimum Humidity 78    
Precipitation  
Precipitation 0.01 in - - ()
Sea Level Pressure  
Sea Level Pressure 30.11 in    
Wind  
Wind Speed 4 mph (ENE)    
Max Wind Speed 9 mph    
Max Gust Speed 23 mph    
Visibility 7 miles    
Events Fog , Rain    
Averages and records for this station are not official NWS values.
T = Trace of Precipitation, MM = Missing Value Source: NWS Daily Summary

Daily Weather History Graph

Daily Weather History Graph

Search for Another Location

Airport or City:

Trip Planner

Search our weather history database for the weather conditions in past years. The results will help you decide how hot, cold, wet, or windy it might be!

Date:

Astronomy

Jan. 07, 2012 Rise Set
Actual Time 6:43 AM CST 5:00 PM CST
Civil Twilight 6:17 AM CST 5:26 PM CST
Nautical Twilight 5:47 AM CST 5:56 PM CST
Astronomical Twilight 5:18 AM CST 6:25 PM CST
Moon 3:45 PM CST (1/7) 5:13 AM CST (1/7)
Length of Visible Light 11h 09m
Length of Day
10h 16m
Waxing Gibbous, 97% of the Moon is Illuminated
Jan 7
Waxing Gibbous
Jan 9
Full
Jan 16
Last Quarter
Jan 23
New
Jan 30
First Quarter

Hourly Weather History & Observations

Time (CST) Temp. Dew Point Humidity Pressure Visibility Wind Dir Wind Speed Gust Speed Precip Events Conditions
12:53 AM 53.1 °F 53.1 °F 100% 30.09 in 9.0 mi Calm Calm - N/A   Clear
1:53 AM 54.0 °F 52.0 °F 93% 30.09 in 10.0 mi Calm Calm - 0.01 in   Clear
2:53 AM 54.0 °F 53.1 °F 97% 30.09 in 9.0 mi NNW 8.1 mph 23.0 mph N/A   Clear
3:53 AM 52.0 °F 51.1 °F 97% 30.09 in 5.0 mi Calm Calm - N/A   Clear
4:04 AM 51.8 °F 51.8 °F 100% 30.09 in 1.8 mi Calm Calm - N/A   Clear
4:23 AM 51.8 °F 51.8 °F 100% 30.09 in 0.8 mi Calm Calm - N/A   Clear
4:27 AM 51.8 °F 51.8 °F 100% 30.09 in 2.0 mi Calm Calm - N/A   Clear
4:35 AM 51.8 °F 51.8 °F 100% 30.10 in 5.0 mi Calm Calm - N/A   Clear
4:53 AM 52.0 °F 52.0 °F 100% 30.10 in 6.0 mi NNW 3.5 mph - N/A   Clear
5:53 AM 52.0 °F 52.0 °F 100% 30.11 in 5.0 mi Variable 5.8 mph - N/A   Clear
6:13 AM 53.6 °F 53.6 °F 100% 30.12 in 3.0 mi NNE 4.6 mph - N/A   Scattered Clouds
6:16 AM 53.6 °F 53.6 °F 100% 30.12 in 1.8 mi NNE 5.8 mph - N/A   Scattered Clouds
6:21 AM 51.8 °F 51.8 °F 100% 30.12 in 0.8 mi NNE 6.9 mph - N/A   Mist
6:53 AM 52.0 °F 52.0 °F 100% 30.12 in 0.2 mi Variable 4.6 mph - N/A Fog Fog
7:03 AM 53.6 °F 53.6 °F 100% 30.13 in 2.0 mi Variable 4.6 mph - N/A   Overcast
7:11 AM 53.6 °F 53.6 °F 100% 30.13 in 6.0 mi Variable 3.5 mph - N/A   Mostly Cloudy
7:17 AM 51.8 °F 51.8 °F 100% 30.13 in 1.5 mi NNE 6.9 mph - N/A   Mostly Cloudy
7:30 AM 53.6 °F 53.6 °F 100% 30.13 in 3.0 mi Variable 3.5 mph - N/A   Partly Cloudy
7:53 AM 55.9 °F 55.0 °F 97% 30.14 in 8.0 mi NE 8.1 mph - N/A   Clear
8:53 AM 63.0 °F 60.1 °F 90% 30.15 in 10.0 mi NE 9.2 mph - N/A   Partly Cloudy
9:53 AM 66.9 °F 62.1 °F 84% 30.16 in 10.0 mi Variable 6.9 mph - N/A   Clear
10:53 AM 69.1 °F 63.0 °F 81% 30.14 in 10.0 mi East 8.1 mph - N/A   Clear
11:53 AM 69.1 °F 63.0 °F 81% 30.12 in 10.0 mi Variable 6.9 mph - N/A   Clear
12:53 PM 70.0 °F 63.0 °F 78% 30.10 in 10.0 mi SSE 6.9 mph - N/A   Clear
1:53 PM 70.0 °F 63.0 °F 78% 30.10 in 10.0 mi Variable 5.8 mph - N/A   Clear
2:53 PM 70.0 °F 63.0 °F 78% 30.10 in 10.0 mi SSE 8.1 mph - N/A   Partly Cloudy
3:53 PM 68.0 °F 63.0 °F 84% 30.11 in 10.0 mi Variable 4.6 mph - N/A   Overcast
4:53 PM 66.9 °F 63.0 °F 87% 30.10 in 10.0 mi ESE 8.1 mph - N/A   Overcast
5:53 PM 66.0 °F 63.0 °F 90% 30.11 in 10.0 mi SE 6.9 mph - N/A   Overcast
6:53 PM 66.0 °F 63.0 °F 90% 30.12 in 10.0 mi Variable 5.8 mph - N/A   Partly Cloudy
7:53 PM 66.9 °F 63.0 °F 87% 30.12 in 10.0 mi Variable 6.9 mph - N/A   Partly Cloudy
8:53 PM 66.0 °F 63.0 °F 90% 30.12 in 10.0 mi SSE 6.9 mph - N/A   Clear
9:53 PM 66.9 °F 62.1 °F 84% 30.13 in 10.0 mi Variable 5.8 mph - N/A   Mostly Cloudy
10:53 PM 66.0 °F 63.0 °F 90% 30.13 in 10.0 mi Variable 5.8 mph - N/A   Clear
11:53 PM 66.0 °F 63.0 °F 90% 30.13 in 10.0 mi Variable 5.8 mph - 0.00 in Rain Light Rain